{"data":{"norad_id":45388,"intl_designator":"2020-019AE","name":"STARLINK-1280","alt_names":[],"object_type":"PAYLOAD","status":"ACTIVE","operator":null,"country":"US","launch_date":"2020-03-18","launch_site_code":"AFETR","launch_vehicle":null,"mission":null,"orbit_class":"UNKNOWN","rcs_meters":null,"size_class":null,"mass_kg":null,"dimensions":null,"purposes":["comms"],"wikipedia_slug":null,"has_3d_model":false,"image_url":null,"decayed_at":null,"tle_current":{"epoch":"2026-08-18T22:02:17.124864Z","epoch_age_seconds":2829497,"freshness":"OLD","line1":"1 45388U 20019AE  26230.91825376  .03862670  12174-4  64322-3 0  9995","line2":"2 45388  53.0209  25.3511 0010238 302.9055  57.1003 16.32379338356021","mean_motion":16.32379338,"eccentricity":0.0010238,"inclination_deg":53.0209,"raan_deg":25.3511,"arg_perigee_deg":302.9055,"mean_anomaly_deg":57.1003,"bstar":0.00064322,"rev_number":35602,"period_min":88.214789692468,"perigee_km":179.43282311337,"apogee_km":192.87386402085,"semimajor_km":6564.2903435671,"source":"CELESTRAK","updated_at":"2026-08-19T09:00:42.168031Z"}}}